DL9SEC-13 Weather Reports


time (UTC)temp
F
wind
direction
speed
knots
gust
knots
rain 1hr
in
rain 24hr
in
rain mn
in
humidity
%
barometer
mb
20260507092502 51 292 3.5 3.5 0.00 0.40 0.09 90 1017.5
20260507091002 51 292 3.5 3.5 0.01 0.40 0.09 90 1017.3
20260507085502 51 270 3.5 4.3 0.03 0.40 0.09 91 1017.2
20260507084003 50 292 1.7 1.7 0.03 0.40 0.09 94 1017.1
20260507082503 50 248 0.0 0.0 0.03 0.39 0.09 93 1017.0
20260507081002 50 270 1.7 1.7 0.01 0.37 0.07 92 1016.9
20260507075503 51 270 3.5 4.3 0.01 0.37 0.06 92 1016.6
20260507074003 51 270 4.3 4.3 0.01 0.36 0.06 90 1016.4
20260507072503 50 248 1.7 1.7 0.01 0.36 0.04 91 1016.2
20260507071003 50 292 0.0 0.0 0.01 0.36 0.04 92 1016.0
20260507065502 50 248 0.0 0.0 0.03 0.36 0.04 92 1015.9
20260507064002 50 292 2.6 2.6 0.01 0.34 0.03 91 1015.7
20260507062502 50 292 2.6 2.6 0.01 0.34 0.03 91 1015.7
20260507061003 50 270 0.9 0.9 0.00 0.33 0.03 91 1015.7
20260507055502 50 292 1.7 1.7 0.01 0.33 0.01 91 1015.5
20260507054003 50 270 1.7 1.7 0.01 0.33 0.01 91 1015.3
20260507052503 50 248 2.6 2.6 0.01 0.33 0.01 91 1015.1
20260507051003 50 248 2.6 2.6 0.00 0.31 0.00 91 1015.0
20260507045503 50 248 0.0 0.0 0.00 0.31 0.00 90 1014.9
20260507044003 49 248 0.9 0.9 0.00 0.31 0.00 91 1014.6
20260507042502 49 248 0.0 0.0 0.00 0.31 0.00 93 1014.3
20260507041003 49 68 1.7 1.7 0.00 0.31 0.00 95 1014.3
20260507035503 49 90 0.0 0.0 0.00 0.31 0.00 95 1014.2
20260507034003 49 90 0.0 0.0 0.00 0.31 0.00 95 1014.0
20260507032502 48 90 0.0 0.0 0.00 0.31 0.00 95 1014.0
20260507031002 48 90 0.0 0.0 0.00 0.31 0.00 95 1013.9
20260507025504 48 90 0.0 0.0 0.00 0.31 0.00 95 1013.8
20260507024003 48 90 0.0 0.0 0.00 0.31 0.00 95 1013.8
20260507022502 48 90 0.0 0.0 0.00 0.31 0.00 95 1013.7
20260507021003 48 90 0.0 0.0 0.00 0.31 0.00 94 1013.7
20260507015502 48 90 0.0 0.0 0.00 0.31 0.00 93 1013.6
20260507014003 49 90 0.0 0.0 0.00 0.31 0.00 93 1013.5
20260507012502 49 90 0.0 0.0 0.00 0.31 0.00 93 1013.4
20260507011002 49 90 0.0 0.0 0.00 0.31 0.00 93 1013.3
20260507005502 49 90 0.0 0.0 0.00 0.31 0.00 92 1013.3
20260507004003 49 90 1.7 1.7 0.00 0.31 0.00 92 1013.4
20260507002502 49 270 0.0 0.0 0.00 0.31 0.00 94 1013.4
20260507001003 49 270 0.9 0.9 0.00 0.31 0.00 93 1013.4
20260506235503 49 270 0.9 0.9 0.00 0.31 0.00 92 1013.4
20260506234002 49 270 0.0 0.0 0.00 0.31 0.00 92 1013.5
20260506232503 50 270 0.0 0.0 0.00 0.31 0.00 92 1013.6
20260506231002 50 270 0.9 0.9 0.00 0.31 0.00 92 1013.5
20260506225503 50 270 0.0 0.0 0.00 0.31 0.00 90 1013.5
20260506224002 51 270 0.0 0.0 0.00 0.31 0.00 91 1013.3
20260506222502 51 270 0.0 0.0 0.00 0.31 0.00 90 1013.1
20260506221002 51 270 0.0 0.0 0.00 0.31 0.00 94 1013.0
20260506215504 51 270 0.0 0.0 0.00 0.31 0.31 93 1013.0
20260506214002 51 270 0.0 0.0 0.00 0.31 0.31 92 1013.0
20260506212502 51 270 0.0 0.0 0.00 0.31 0.31 95 1012.7
20260506211002 51 270 0.0 0.0 0.00 0.31 0.31 95 1012.7
20260506205502 51 270 0.0 0.0 0.00 0.31 0.31 95 1012.6
20260506204002 51 270 0.0 0.0 0.00 0.31 0.31 95 1012.7
20260506202503 51 270 0.0 0.0 0.00 0.31 0.31 95 1012.7
20260506201003 51 270 0.0 0.0 0.00 0.31 0.31 95 1012.5
20260506195503 51 270 0.0 0.0 0.01 0.31 0.31 95 1012.3
20260506194003 51 270 0.0 0.0 0.01 0.31 0.31 95 1012.3
20260506192503 51 270 0.0 0.0 0.01 0.31 0.31 94 1012.0
20260506191003 51 270 0.0 0.0 0.00 0.29 0.29 94 1011.8
20260506185504 51 270 0.0 0.0 0.03 0.29 0.29 93 1011.6
20260506184003 52 270 0.0 0.0 0.07 0.29 0.29 92 1011.5
20260506182504 52 270 0.0 0.0 0.15 0.29 0.29 91 1011.2
20260506181003 52 292 2.6 2.6 0.14 0.29 0.28 91 1011.3
20260506175502 52 292 1.7 1.7 0.15 0.29 0.26 94 1011.2
20260506174004 52 112 0.0 0.0 0.11 0.23 0.22 93 1010.9
20260506172502 53 112 0.0 0.0 0.06 0.17 0.15 93 1010.9
20260506171003 53 112 0.0 0.0 0.03 0.14 0.11 92 1010.7
20260506165502 53 112 0.0 0.0 0.03 0.14 0.11 91 1010.7
20260506164002 53 112 2.6 2.6 0.00 0.11 0.07 90 1010.8
20260506162502 54 292 1.7 1.7 0.00 0.11 0.07 90 1010.4
20260506161003 54 248 1.7 1.7 0.00 0.11 0.07 90 1010.3
20260506155503 55 270 3.5 4.3 0.00 0.11 0.07 90 1010.2
20260506154002 55 338 5.2 5.2 0.00 0.11 0.07 91 1009.9
20260506152503 56 292 6.1 7.0 0.01 0.11 0.07 92 1009.6
20260506151002 55 248 0.0 0.0 0.07 0.11 0.07 92 1009.7
20260506145505 54 90 0.0 0.0 0.07 0.11 0.07 91 1009.7
20260506144002 54 315 0.0 0.0 0.06 0.09 0.07 91 1009.5
20260506142502 60 248 9.6 11.3 0.00 0.03 0.00 78 1009.5
20260506141003 63 248 1.7 1.7 0.00 0.03 0.00 71 1008.8
20260506135503 64 248 1.7 1.7 0.00 0.03 0.00 68 1008.9
20260506134003 66 270 0.9 0.9 0.00 0.04 0.00 64 1008.7
20260506132503 67 270 0.0 0.0 0.00 0.04 0.00 63 1008.6
20260506131003 65 270 0.9 0.9 0.00 0.07 0.00 65 1008.7
20260506125503 63 270 0.9 0.9 0.00 0.07 0.00 69 1008.8
20260506124003 64 270 0.0 0.0 0.00 0.17 0.00 67 1008.9
20260506122502 64 270 0.0 0.0 0.00 0.20 0.00 68 1009.0
20260506121002 64 270 0.9 0.9 0.00 0.20 0.00 71 1008.9
20260506115502 63 270 2.6 2.6 0.00 0.20 0.00 68 1009.0
20260506114002 64 292 0.0 0.0 0.00 0.20 0.00 67 1009.0
20260506112502 66 315 0.9 0.9 0.00 0.20 0.00 64 1009.0
20260506111003 65 292 0.0 0.0 0.00 0.20 0.00 63 1009.3
20260506105503 64 292 0.0 0.0 0.00 0.20 0.00 61 1009.5
20260506104003 64 292 1.7 1.7 0.00 0.20 0.00 63 1009.7
20260506102503 64 248 0.0 0.0 0.00 0.20 0.00 62 1009.9
20260506101003 64 292 0.0 0.0 0.00 0.20 0.00 61 1009.8
20260506095502 64 292 2.6 2.6 0.00 0.20 0.00 63 1009.8
20260506094003 65 270 0.0 0.0 0.00 0.20 0.00 65 1009.9